Location: Newark
(43.1897°N, 0.7711°W)
Time: 09:39:24
(UTC+00:00)

Envisat - Visible Passes

Search period start: 19 November 2019 00:00
Search period end: 29 November 2019 00:00
Orbit: 764 x 766 km, 98.1° (Epoch: 18 November)

Date Brightness Start Highest point End Pass type
(mag) Time Alt. Az. Time Alt. Az. Time Alt. Az.
19 Nov 5.5 06:02:35 10° NE 06:06:46 25° E 06:10:55 10° SSE visible
19 Nov 3.5 17:17:56 10° SE 17:22:34 37° ENE 17:27:12 10° N visible
19 Nov 5.0 18:57:20 10° SSW 19:01:38 28° W 19:05:59 10° NW visible
20 Nov 6.4 05:28:04 10° ENE 05:29:35 11° E 05:31:05 10° ESE visible
20 Nov 3.5 18:19:41 10° S 18:24:41 61° W 18:29:44 10° NNW visible
21 Nov 4.5 06:27:35 10° NNE 06:32:25 43° E 06:37:14 10° S visible
21 Nov 3.0 17:42:56 10° SSE 17:47:56 63° ENE 17:52:58 10° N visible
21 Nov 5.8 19:24:17 10° SW 19:27:23 16° W 19:30:30 10° NW visible
22 Nov 5.9 05:51:41 10° NE 05:55:24 20° E 05:59:05 10° SE visible
22 Nov 3.8 17:07:01 10° SE 17:11:22 30° ENE 17:15:45 10° N visible
22 Nov 4.6 18:45:41 10° SSW 18:50:17 35° W 18:54:56 10° NNW visible
23 Nov 3.1 18:08:19 10° S 18:13:24 77° WSW 18:18:31 10° NNW visible
24 Nov 4.9 06:16:28 10° NNE 06:21:06 34° E 06:25:41 10° SSE visible
24 Nov 3.1 17:31:49 10° SE 17:36:42 50° ENE 17:41:36 10° N visible
24 Nov 5.5 19:12:16 10° SW 19:15:59 20° W 19:19:44 10° NW visible
25 Nov 6.0 05:40:55 10° NE 05:43:59 16° E 05:47:04 10° SE visible
25 Nov 4.0 16:56:10 10° ESE 17:00:12 24° ENE 17:04:14 10° NNE visible
25 Nov 4.2 18:34:08 10° S 18:38:57 44° W 18:43:49 10° NNW visible
26 Nov 2.9 17:57:03 10° SSE 18:02:07 86° ENE 18:07:15 10° NNW visible
26 Nov 6.2 19:40:12 10° WSW 19:41:48 11° W 19:43:24 10° WNW visible
27 Nov 5.3 06:05:25 10° NE 06:09:45 27° E 06:14:03 10° SSE visible
27 Nov 3.4 17:20:47 10° SE 17:25:29 40° ENE 17:30:13 10° N visible
27 Nov 5.1 19:00:27 10° SSW 19:04:37 25° W 19:08:48 10° NW visible
28 Nov 6.2 05:30:29 10° ENE 05:32:35 12° E 05:34:41 10° ESE visible
28 Nov 3.7 18:22:40 10° S 18:27:38 55° W 18:32:39 10° NNW visible
